Regional Weather Roundup
Issued by NWS Newport/Morehead, NC

Current Version | Previous Version | Graphics & Text | Print | Product List | Glossary On
Versions: 1 2 3 4 5 6 7 8 9 10 11 12 13 14 15 16 17 18 19 20 21 22 23 24 25 26 27 28 29 30 31 32 33 34 35 36 37 38 39 40 41 42 43 44 45 46 47 48 49 50
000 ASUS42 KMHX 251425 RWRMHX WEATHER ROUNDUP FOR EASTERN NORTH CAROLINA NATIONAL WEATHER SERVICE NEWPORT/MOREHEAD CITY NC 1000 AM EDT MON MAY 25 2015 NOTE: "FAIR" INDICATES FEW OR NO CLOUDS BELOW 12,000 FEET WITH NO SIGNIFICANT WEATHER AND/OR OBSTRUCTIONS TO VISIBILITY NCZ015>017-031-032-045>047-102-103-251500- NORTH COAST CITY SKY/WX TMP DP RH WIND PRES REMARKS EDENTON MOSUNNY 75 60 59 S5 30.37S ELIZABETH CITY SUNNY 75 60 59 S10 30.37S KITTY HAWK SUNNY 74 58 57 CALM 30.36F MANTEO SUNNY 74 52 45 SW6 30.38S $$ NCZ045>047-081-094-103-104-251500- CENTRAL COAST CITY SKY/WX TMP DP RH WIND PRES REMARKS FRISCO SUNNY 75 55 49 S7 30.38S SWANQUARTER N/A 77 N/A N/A S8 30.33S $$ NCZ095-097-098-100-101-251500- SOUTHERN COAST CITY SKY/WX TMP DP RH WIND PRES REMARKS BEAUFORT SUNNY 75 59 57 SE10 30.37R CEDAR ISLAND N/A 77 N/A N/A SE5G12 30.41S JACKSONVILLE SUNNY 77 58 51 E8 30.35F PINEY ISLAND SUNNY N/A N/A N/A S5 30.37S WILMINGTON SUNNY 76 55 48 S10G17 30.35S $$ NCZ011>013-027>030-043-044-078>080-089-090>093-098-251500- COASTAL PLAIN CITY SKY/WX TMP DP RH WIND PRES REMARKS AHOSKIE SUNNY 73 60 64 S8 30.37R CLINTON SUNNY 74 62 64 SE5 30.36S ELIZABETHTOWN SUNNY 75 59 57 SE7 30.35F GOLDSBORO SUNNY 76 62 63 S5 30.34S GREENVILLE SUNNY 77 61 57 SW6 30.37S HAVELOCK SUNNY 76 57 51 SE7 30.38S KENANSVILLE SUNNY 74 58 57 CALM 30.37S KINSTON SUNNY 75 59 57 S7 30.37S NEW BERN SUNNY 76 58 53 SE7 30.38S RICHLANDS SUNNY 77 57 50 S8 30.37R ROCKY MOUNT SUNNY 75 60 59 SW9 30.36S WASHINGTON SUNNY 74 57 55 S8 30.37S WHITEVILLE SUNNY 75 60 59 E6 30.34F $$ AMZ130-135-150-152-154-156-158-170-250-252-270-ANZ085-086-088-633-658-670-251500- MARINE OBSERVATIONS STATION/POSITION TIME TEMP WIND PRES WAVE SWELL AIR SEA DIR/SP/G HT/PER HT/PER (UTC) (F) (DEG/KT/KT) (MB) (FT/S) (FT/S) CHESAPEAKE LIGHT 1400 66 180/ 12/ 12 1028.7 64 E VA BEACH 1350 65 62 170/ 4/ 6 1028.5 1/ 8 2/ 8 DUCK 1400 68 63 140/ 9/ 10 1027.4 2 E DUCK 1311 64 N/A 1/ 9 OREGON INLET 1400 72 72 180/ 7/ 9 1028.6 13E OREGON INLT 1400 66 N/A 2/ 8 HATTERAS CG 1400 74 73 150/ 6/ 7 1028.2 DIAMOND BUOY 1350 73 77 140/ 8/ 10 1028.7 2/ 7 2/ 7 CAPE LOOKOUT 1400 73 120/ 7/ 8 1028.2 BEAUFORT LAB 1400 74 74 130/ 7/ 9 1027.6 27 SE WRIGHTSVLE 1400 71 76 150/ 8/ 10 N/A 5 SE WRIGHTSVLE 1308 75 76 150/ 8/ 12 1027.8 225 S CAPE HAT 1350 73 74 100/ 14/ 17 1027.6 4/ 6 2/ 7 41 SE CHARLESTON 1350 75 75 100/ 12/ 12 1026.2 4/ 7 3/ 7 $$

USA.gov is the U.S. government's official web portal to all federal, state and local government web resources and services.